# Land Stadt Wetter Temperatur Luftdruck Luftfeuchtigkeit Sichtweite Windgeschwindigkeit Windrichtung Ortszeit
1 et Addis Abeba Rain 12 1017 92 637 7 224 02.08.2018 14:23
2 tr Alanya Clear 24 1009 36 7000 15 260 02.08.2018 14:22
3 au Alice Springs Clouds 20 1010 24 10000 15 360 02.08.2018 14:21
4 ru Amderma Clouds 11 1013 86 10000 31 244 02.08.2018 14:23
5 ru Anadyr Clouds 13 1010 66 10000 14 340 02.08.2018 14:23
6 ch Andermatt Clouds 5 1021 94 6273 8 354 02.08.2018 14:23
7 ad Andorra la Vella Clear 17 1021 25 10000 7 23 02.08.2018 14:22
8 tr Ankara Clear 21 1011 35 10000 2 0 02.08.2018 14:23
9 mg Antananarivo Clouds 8 1025 100 10000 5 60 02.08.2018 14:21
10 gr Athen Clear 26 1008 61 10000 4 351 02.08.2018 14:22
11 ck Avarua Clouds 24 1016 78 10000 22 80 02.08.2018 14:22
12 iq Bagdad Clear 34 995 26 10000 15 300 02.08.2018 14:22
13 th Bangkok Rain 27 1003 85 10000 21 203 02.08.2018 14:21
14 es Barcelona Clouds 24 1014 73 10000 9 190 02.08.2018 14:22
15 de Berlin Clouds 16 1017 72 10000 4 0 02.08.2018 14:21
16 ch Bern Clouds 11 1019 100 10000 2 0 02.08.2018 14:23
17 fr Bordeaux Clear 18 1018 59 10000 8 350 02.08.2018 14:21
18 de Braunschweig Clouds 13 1014 80 10000 4 245 02.08.2018 14:21
19 de Bremen Clouds 14 1016 82 10000 4 140 02.08.2018 14:22
20 ar Buenos Aires Clouds 19 1018 77 10000 11 100 02.08.2018 14:22
21 ma Casablanca Clouds 22 1013 88 10000 9 330 02.08.2018 14:23
22 us Chicago Clouds 21 1018 46 10000 18 20 02.08.2018 14:23
23 pe Cusco Smoke 20 1031 8 10000 15 20 02.08.2018 14:23
24 au Darwin Clouds 21 1011 94 10000 5 80 02.08.2018 14:22
25 us Death Valley Clear 44 1008 6 10000 13 156 02.08.2018 14:22
26 us Denver Clouds 31 1019 25 10000 21 330 02.08.2018 14:21
27 qa Doha Clear 36 993 22 10000 8 240 02.08.2018 14:23
28 de Dresden Clouds 15 1017 72 10000 5 250 02.08.2018 14:22
29 ae Dubai Clouds 34 992 79 10000 11 200 02.08.2018 14:21
30 ie Dublin Clouds 18 1003 82 10000 26 220 02.08.2018 14:21
31 de Emden Clouds 15 1015 68 10000 5 151 02.08.2018 14:21
32 ar Esquel Smoke 6 1015 70 10000 5 320 02.08.2018 14:22
33 us Fairbanks Clouds 16 1008 77 10000 8 200 02.08.2018 14:23
34 de Flensburg Clouds 13 1015 71 10000 13 200 02.08.2018 14:21
35 de Frankfurt Clouds 17 1017 67 10000 8 230 02.08.2018 14:22
36 de Freiburg Clouds 15 1016 80 10000 3 53 02.08.2018 14:22
37 gb Glasgow Clouds 17 998 93 10000 39 210 02.08.2018 14:21
38 de Hamburg Clouds 13 1016 81 10000 2 60 02.08.2018 14:21
39 no Hammerfest Clouds 11 1004 93 8000 13 270 02.08.2018 14:22
40 de Hannover Clouds 15 1017 76 10000 2 0 02.08.2018 14:21
41 vn Hanoi Clouds 26 1002 88 8000 9 100 02.08.2018 14:21
42 de Helgoland Clouds 14 1016 71 10000 9 150 02.08.2018 14:22
43 fi Helsinki Fog 15 1009 100 8000 4 240 02.08.2018 14:21
44 de Hiddensee Clouds 14 1020 66 10000 18 250 02.08.2018 14:21
45 sb Honiara Clouds 25 1009 83 10000 4 180 02.08.2018 14:22
46 us Honolulu Clouds 28 1019 51 10000 13 80 02.08.2018 14:22
47 at Innsbruck Clouds 10 1020 93 10000 5 100 02.08.2018 14:23
48 tr Istanbul Clear 22 1010 69 10000 18 60 02.08.2018 14:23
49 in Jagatsukh Clouds 19 1004 50 10000 2 19 02.08.2018 14:22
50 id Jakarta Haze 25 1008 88 3000 5 170 02.08.2018 14:22
51 ru Jakutsk Clear 15 1018 67 10000 4 300 02.08.2018 14:22
52 af Kabul Clear 25 1006 16 10000 31 320 02.08.2018 14:21
53 eg Kairo Clear 28 1007 61 10000 13 340 02.08.2018 14:22
54 za Kapstadt Clear 10 1027 70 10000 24 150 02.08.2018 14:22
55 de Kassel Clouds 13 1018 71 10000 4 320 02.08.2018 14:21
56 ua Kiew Clouds 21 1015 56 10000 7 110 02.08.2018 14:21
57 cd Kisangani Clouds 22 1014 94 10000 3 314 02.08.2018 14:23
58 de Köln Clouds 17 1017 66 10000 2 0 02.08.2018 14:21
59 bo La Paz Clouds 17 1038 14 10000 18 150 02.08.2018 14:22
60 es Las Palmas de Gran Canaria Clouds 23 1013 73 10000 39 360 02.08.2018 14:21
61 us Las Vegas Clear 40 1012 7 10000 11 120 02.08.2018 14:21
62 cn Lhasa Clouds 12 1012 63 10000 6 144 02.08.2018 14:22
63 pt Lissabon Clear 21 1013 64 10000 26 320 02.08.2018 14:22
64 gb London Clouds 17 1014 63 10000 21 230 02.08.2018 14:22
65 us Los Angeles Clear 27 1014 54 10000 14 217 02.08.2018 14:22
66 es Madrid Clouds 28 1015 28 10000 4 0 02.08.2018 14:23
67 de Magdeburg Clouds 13 1017 69 10000 2 236 02.08.2018 14:22
68 it Mailand Clear 22 1009 35 10000 5 330 02.08.2018 14:21
69 mv Male Clouds 29 1006 79 10000 18 230 02.08.2018 14:23
70 br Manaus Clouds 33 1012 52 10000 5 190 02.08.2018 14:21
71 gb Manchester Clouds 17 1008 82 10000 18 200 02.08.2018 14:21
72 ph Manila Clouds 27 1008 88 10000 5 100 02.08.2018 14:21
73 ma Marrakesch Clear 30 1011 42 10000 11 360 02.08.2018 14:23
74 mx Mexiko Stadt Clouds 24 1027 41 10000 11 40 02.08.2018 14:21
75 us Miami Clear 32 1014 59 10000 17 163 02.08.2018 14:23
76 uy Montevideo Clouds 23 1019 53 10000 8 360 02.08.2018 14:22
77 ca Montreal Rain 21 1011 100 10000 18 110 02.08.2018 14:22
78 ru Moskau Clouds 16 1020 72 10000 7 90 02.08.2018 14:22
79 in Mumbai Haze 29 993 89 3000 15 240 02.08.2018 14:22
80 de München Clouds 14 962 76 10000 5 165 02.08.2018 14:21
81 jp Nagasaki Clouds 27 1016 88 10000 11 130 02.08.2018 14:21
82 in Nagpur Haze 25 995 94 3000 11 249 02.08.2018 14:21
83 ke Nairobi Clouds 15 1024 72 10000 9 260 02.08.2018 14:22
84 bs Nassau Clouds 30 1016 74 10000 15 140 02.08.2018 14:22
85 us New York Clouds 27 1007 61 10000 44 260 02.08.2018 14:22
86 fr Nizza Clouds 23 1009 50 10000 9 340 02.08.2018 14:22
87 us Nome Clouds 12 1009 62 10000 17 230 02.08.2018 14:23
88 de Nürnberg Clouds 13 1019 93 10000 11 90 02.08.2018 14:21
89 gl Nuuk Clouds 8 1004 87 10000 13 300 02.08.2018 14:22
90 de Oberstdorf Clouds 11 1013 71 10000 4 140 02.08.2018 14:21
91 no Oslo Clouds 13 1006 68 10000 4 140 02.08.2018 14:23
92 it Palermo Clouds 25 1010 61 10000 24 250 02.08.2018 14:22
93 es Palma de Mallorca Clouds 24 1016 69 10000 8 140 02.08.2018 14:22
94 fr Paris Clouds 19 1017 42 10000 4 40 02.08.2018 14:22
95 cn Peking Clouds 29 1000 75 10000 6 61 02.08.2018 14:23
96 au Perth Clouds 10 1017 93 10000 11 190 02.08.2018 14:21
97 pg Port Moresby Clouds 23 1009 94 10000 5 0 02.08.2018 14:21
98 bo Potisi Clear 12 1015 42 10000 12 64 02.08.2018 14:22
99 is Reykjavik Rain 10 989 93 8000 11 350 02.08.2018 14:22
100 sa Riad Clear 34 1002 14 6000 9 290 02.08.2018 14:21
101 br Rio de Janeiro Clear 21 1026 73 10000 8 150 02.08.2018 14:22
102 it Rom Rain 23 1008 49 10000 4 220 02.08.2018 14:23
103 fi Rovaniemi Clouds 12 1005 100 10000 9 190 02.08.2018 14:21
104 ec San Cristobal Clouds 23 1012 73 10000 18 180 02.08.2018 14:22
105 cl Santiago Haze 20 1018 33 5000 9 300 02.08.2018 14:23
106 do Santo Domingo Clouds 31 1015 66 10000 18 150 02.08.2018 14:21
107 kr Seoul Clouds 26 1011 94 10000 4 149 02.08.2018 14:21
108 es Sevilla Clear 29 1010 45 10000 17 280 02.08.2018 14:22
109 cn Shanghai Rain 26 1004 94 8000 32 170 02.08.2018 14:21
110 bg Sofia Clear 21 1012 72 10000 18 120 02.08.2018 14:21
111 se Stockholm Clouds 15 1010 67 10000 8 270 02.08.2018 14:23
112 de Stuttgart Clear 14 1019 82 10000 2 0 02.08.2018 14:22
113 ru Surgut Thunderstorm 24 1018 73 10000 7 240 02.08.2018 14:23
114 fj Suva Clouds 25 1014 69 10000 8 180 02.08.2018 14:21
115 au Sydney Clear 7 1013 49 10000 22 340 02.08.2018 14:22
116 es Tarifa Clouds 25 1010 69 10000 18 40 02.08.2018 14:21
117 jp Tokio Clouds 28 1017 83 10000 8 160 02.08.2018 14:22
118 de Torfhaus Clouds 14 1014 71 10000 3 195 02.08.2018 14:22
119 de Trier Clear 14 1018 54 10000 2 118 02.08.2018 14:21
120 us Tucson Clear 40 1016 14 10000 8 240 02.08.2018 14:21
121 mn Ulaanbaatar Clouds 11 1014 87 10000 4 0 02.08.2018 14:23
122 mn Uliastai Rain 13 1008 64 10000 10 123 02.08.2018 14:23
123 ar Ushuaia Clouds 10 1000 46 10000 9 320 02.08.2018 14:22
124 mx Veracruz Clouds 32 1014 62 10000 18 60 02.08.2018 14:21
125 bg Warna Clouds 20 1011 77 10000 13 40 02.08.2018 14:21
126 nz Wellington Clouds 13 1019 76 10000 24 360 02.08.2018 14:23
127 ru Werchojansk Clear 16 1020 45 10000 4 140 02.08.2018 14:22
128 at Wien Clouds 14 1016 82 10000 31 300 02.08.2018 14:22